Torna al catalogo

PUNCH-WFI02

AttivoScienzaSSO
NORAD 63181·PAYLOAD·🇺🇸 United States

Lanciato Mar 12, 2025 da Vandenberg Space Force Base

Loading…

Prossimi Passaggi (prossime 24 ore)

TLE

AggiornatoSource: Space-Track

Epoca: Sep 14, 2026, 00:07 UTC

1 63181U 25047D   26257.00508966  .00000370  00000-0  63230-4 0  9991
2 63181  97.9589  80.5220 0008018 255.3480 104.6840 14.74429037 81147

Traccia PUNCH-WFI02 in tempo reale con AllMySat

Download on the App Store